Strona główna
METAR-TAF:

METAR-TAF

Lotnisko :

Platforma wiertnicza

Goeree Le, Holandia

Szerokość geograficzna: 51-55-33N, Długość geograficzna: 3-40-12E, wysokość: 19 m

Aktualna obserwacja pogody

Raport powstał 13 minut temu, godzina 14:55 UTC
Wiatr 10 kt od zachodnio-południowy zachód
Temperatura 18°C
Wilgotność 88%
Ciśnienie 1013 hPa
Widzialność 10 km lub więcej

METAR: EHSC 191455Z AUTO 25010KT 9999 ///////// 18/16 Q1013 W18/H4

czas: 17:08 (15:08 UTC)


TAF: brakujący

Obserwacja i prognoza pogody dla ponad 4000 lotnisk (raport METAR i TAF).

Dostępne stacje oznaczono żółtymi i czerwonymi punktami na mapie.

Najedź kursorem aby zobaczyć nazwę stacji.

Kliknij aby zobaczyć obserwacje i prognozy pogody.

Aby zmienić mapę: kliknij na zielony przycisk z czarnym krzyżykiem, aby powiększyć; na zielony przycisk z myślnikiem, aby pomniejszyć; na zielone strzałki, aby przejść do map sąsiednich.


METAR-TAF: